Time,TemperatureF,DewpointF,PressureIn,WindDirection,WindDirectionDegrees,WindSpeedMPH,WindSpeedGustMPH,Humidity,HourlyPrecipIn,Conditions,Clouds,dailyrainin,SoftwareType,DateUTC
2013-03-12 00:10:00,33.8,31.0,29.75,WSW,248,11.0,-999.0,89,-99.99,,,0.00,weatherlink.com 1.10,2013-03-12 04:10:00,
2013-03-12 00:25:00,33.6,30.0,29.75,West,279,8.0,-999.0,88,-99.99,,,0.00,weatherlink.com 1.10,2013-03-12 04:25:00,
2013-03-12 00:40:00,33.7,31.0,29.76,WSW,244,14.0,-999.0,88,-99.99,,,0.00,weatherlink.com 1.10,2013-03-12 04:40:00,
2013-03-12 00:56:00,33.3,30.0,29.76,WSW,242,15.0,-999.0,87,-99.99,,,0.00,weatherlink.com 1.10,2013-03-12 04:56:00,
2013-03-12 01:11:00,33.4,30.0,29.77,WSW,240,11.0,-999.0,88,-99.99,,,0.00,weatherlink.com 1.10,2013-03-12 05:11:00,
2013-03-12 01:41:00,33.1,30.0,29.77,WSW,257,17.0,-999.0,88,-99.99,,,0.00,weatherlink.com 1.10,2013-03-12 05:41:00,
2013-03-12 01:56:00,32.8,30.0,29.77,WSW,247,9.0,-999.0,89,-99.99,,,0.00,weatherlink.com 1.10,2013-03-12 05:56:00,
2013-03-12 02:11:00,32.8,30.0,29.78,WSW,249,12.0,-999.0,90,-99.99,,,0.00,weatherlink.com 1.10,2013-03-12 06:11:00,
2013-03-12 02:26:00,32.5,30.0,29.78,WSW,240,4.0,-999.0,90,-99.99,,,0.00,weatherlink.com 1.10,2013-03-12 06:26:00,
2013-03-12 02:41:00,32.3,30.0,29.79,WSW,251,11.0,-999.0,91,-99.99,,,0.00,weatherlink.com 1.10,2013-03-12 06:41:00,
2013-03-12 02:56:00,32.4,30.0,29.79,WSW,238,10.0,-999.0,91,-99.99,,,0.00,weatherlink.com 1.10,2013-03-12 06:56:00,
2013-03-12 03:11:00,32.3,30.0,29.80,SW,235,16.0,-999.0,91,-99.99,,,0.00,weatherlink.com 1.10,2013-03-12 07:11:00,
2013-03-12 03:26:00,32.3,30.0,29.80,WSW,238,9.0,-999.0,91,-99.99,,,0.00,weatherlink.com 1.10,2013-03-12 07:26:00,
2013-03-12 03:42:00,32.3,30.0,29.79,WSW,240,9.0,-999.0,90,-99.99,,,0.00,weatherlink.com 1.10,2013-03-12 07:42:00,
2013-03-12 03:57:00,32.1,30.0,29.79,WSW,238,11.0,-999.0,91,-99.99,,,0.00,weatherlink.com 1.10,2013-03-12 07:57:00,
2013-03-12 04:27:00,32.1,29.0,29.80,WSW,246,12.0,-999.0,89,-99.99,,,0.00,weatherlink.com 1.10,2013-03-12 08:27:00,
2013-03-12 04:42:00,32.1,30.0,29.80,WSW,239,4.0,-999.0,90,-99.99,,,0.00,weatherlink.com 1.10,2013-03-12 08:42:00,
2013-03-12 04:57:00,31.7,29.0,29.81,West,261,10.0,-999.0,91,-99.99,,,0.00,weatherlink.com 1.10,2013-03-12 08:57:00,
2013-03-12 05:12:00,31.7,29.0,29.81,West,259,12.0,-999.0,90,-99.99,,,0.00,weatherlink.com 1.10,2013-03-12 09:12:00,
2013-03-12 05:27:00,31.8,29.0,29.81,WSW,252,12.0,-999.0,89,-99.99,,,0.00,weatherlink.com 1.10,2013-03-12 09:27:00,
2013-03-12 05:42:00,31.8,29.0,29.81,West,264,8.0,-999.0,89,-99.99,,,0.00,weatherlink.com 1.10,2013-03-12 09:42:00,
2013-03-12 05:57:00,31.8,29.0,29.82,WSW,248,13.0,-999.0,88,-99.99,,,0.00,weatherlink.com 1.10,2013-03-12 09:57:00,
2013-03-12 06:12:00,31.9,29.0,29.82,WSW,245,5.0,-999.0,87,-99.99,,,0.00,weatherlink.com 1.10,2013-03-12 10:12:00,
2013-03-12 06:27:00,31.6,28.0,29.84,West,263,8.0,-999.0,87,-99.99,,,0.00,weatherlink.com 1.10,2013-03-12 10:27:00,
2013-03-12 06:43:00,31.5,28.0,29.84,WSW,249,13.0,-999.0,88,-99.99,,,0.00,weatherlink.com 1.10,2013-03-12 10:43:00,
2013-03-12 06:58:00,31.4,28.0,29.84,SW,236,10.0,-999.0,88,-99.99,,,0.00,weatherlink.com 1.10,2013-03-12 10:58:00,
2013-03-12 07:13:00,31.4,28.0,29.84,SW,232,13.0,-999.0,88,-99.99,,,0.00,weatherlink.com 1.10,2013-03-12 11:13:00,
2013-03-12 07:28:00,31.2,28.0,29.85,WSW,254,10.0,-999.0,88,-99.99,,,0.00,weatherlink.com 1.10,2013-03-12 11:28:00,
2013-03-12 07:43:00,30.8,28.0,29.85,WNW,287,8.0,-999.0,88,-99.99,,,0.00,weatherlink.com 1.10,2013-03-12 11:43:00,
2013-03-12 07:58:00,30.9,28.0,29.85,WSW,258,13.0,-999.0,87,-99.99,,,0.00,weatherlink.com 1.10,2013-03-12 11:58:00,
2013-03-12 08:13:00,30.8,27.0,29.86,WSW,247,4.0,-999.0,87,-99.99,,,0.00,weatherlink.com 1.10,2013-03-12 12:13:00,
2013-03-12 08:28:00,30.7,27.0,29.86,WSW,251,10.0,-999.0,87,-99.99,,,0.00,weatherlink.com 1.10,2013-03-12 12:28:00,
2013-03-12 08:43:00,30.6,27.0,29.87,WSW,257,14.0,-999.0,86,-99.99,,,0.00,weatherlink.com 1.10,2013-03-12 12:43:00,
2013-03-12 08:58:00,30.6,27.0,29.88,West,267,8.0,-999.0,86,-99.99,,,0.00,weatherlink.com 1.10,2013-03-12 12:58:00,
2013-03-12 09:14:00,30.6,27.0,29.88,WSW,251,15.0,-999.0,86,-99.99,,,0.00,weatherlink.com 1.10,2013-03-12 13:14:00,
2013-03-12 09:29:00,30.8,27.0,29.88,WSW,243,11.0,-999.0,85,-99.99,,,0.00,weatherlink.com 1.10,2013-03-12 13:29:00,
2013-03-12 09:44:00,30.8,27.0,29.89,WSW,255,11.0,-999.0,85,-99.99,,,0.00,weatherlink.com 1.10,2013-03-12 13:44:00,
2013-03-12 09:59:00,31.0,27.0,29.89,SW,236,13.0,-999.0,84,-99.99,,,0.00,weatherlink.com 1.10,2013-03-12 13:59:00,
2013-03-12 10:14:00,31.2,27.0,29.89,SW,234,12.0,-999.0,83,-99.99,,,0.00,weatherlink.com 1.10,2013-03-12 14:14:00,
2013-03-12 10:29:00,31.2,26.0,29.89,WSW,243,4.0,-999.0,82,-99.99,,,0.00,weatherlink.com 1.10,2013-03-12 14:29:00,
2013-03-12 10:44:00,31.2,26.0,29.89,WSW,250,7.0,-999.0,82,-99.99,,,0.00,weatherlink.com 1.10,2013-03-12 14:44:00,
2013-03-12 10:59:00,31.3,26.0,29.89,WSW,255,14.0,-999.0,81,-99.99,,,0.00,weatherlink.com 1.10,2013-03-12 14:59:00,
2013-03-12 11:14:00,31.3,26.0,29.89,WSW,237,10.0,-999.0,80,-99.99,,,0.00,weatherlink.com 1.10,2013-03-12 15:14:00,
2013-03-12 11:29:00,31.4,26.0,29.90,WSW,242,1.0,-999.0,79,-99.99,,,0.00,weatherlink.com 1.10,2013-03-12 15:29:00,
2013-03-12 11:44:00,31.2,25.0,29.91,West,259,10.0,-999.0,78,-99.99,,,0.00,weatherlink.com 1.10,2013-03-12 15:44:00,
2013-03-12 12:00:00,31.4,25.0,29.91,WSW,245,16.0,-999.0,78,-99.99,,,0.00,weatherlink.com 1.10,2013-03-12 16:00:00,
2013-03-12 12:15:00,31.5,25.0,29.91,WSW,247,8.0,-999.0,77,-99.99,,,0.00,weatherlink.com 1.10,2013-03-12 16:15:00,
2013-03-12 12:30:00,31.6,25.0,29.92,WSW,250,12.0,-999.0,77,-99.99,,,0.00,weatherlink.com 1.10,2013-03-12 16:30:00,
2013-03-12 12:45:00,31.5,25.0,29.92,WSW,239,14.0,-999.0,78,-99.99,,,0.00,weatherlink.com 1.10,2013-03-12 16:45:00,
2013-03-12 13:00:00,31.5,26.0,29.92,WSW,258,7.0,-999.0,79,-99.99,,,0.00,weatherlink.com 1.10,2013-03-12 17:00:00,
2013-03-12 13:15:00,32.1,25.0,29.92,WSW,253,7.0,-999.0,76,-99.99,,,0.00,weatherlink.com 1.10,2013-03-12 17:15:00,
2013-03-12 13:30:00,32.1,26.0,29.92,WSW,245,7.0,-999.0,77,-99.99,,,0.00,weatherlink.com 1.10,2013-03-12 17:30:00,
2013-03-12 13:45:00,32.9,26.0,29.92,SW,229,1.0,-999.0,77,-99.99,,,0.00,weatherlink.com 1.10,2013-03-12 17:45:00,
2013-03-12 14:00:00,33.4,27.0,29.91,WSW,257,9.0,-999.0,76,-99.99,,,0.00,weatherlink.com 1.10,2013-03-12 18:00:00,
2013-03-12 14:15:00,33.8,27.0,29.91,SW,223,1.0,-999.0,76,-99.99,,,0.00,weatherlink.com 1.10,2013-03-12 18:15:00,
2013-03-12 14:30:00,33.6,27.0,29.91,SW,235,7.0,-999.0,76,-99.99,,,0.00,weatherlink.com 1.10,2013-03-12 18:30:00,
2013-03-12 14:45:00,34.2,28.0,29.91,WSW,240,1.0,-999.0,77,-99.99,,,0.00,weatherlink.com 1.10,2013-03-12 18:45:00,
2013-03-12 15:00:00,34.4,27.0,29.91,SW,229,0.0,-999.0,75,-99.99,,,0.00,weatherlink.com 1.10,2013-03-12 19:00:00,
2013-03-12 15:16:00,34.4,27.0,29.91,WSW,246,12.0,-999.0,75,-99.99,,,0.00,weatherlink.com 1.10,2013-03-12 19:16:00,
2013-03-12 15:31:00,34.4,27.0,29.90,SW,227,1.0,-999.0,74,-99.99,,,0.00,weatherlink.com 1.10,2013-03-12 19:31:00,
2013-03-12 15:46:00,34.4,27.0,29.90,SW,221,10.0,-999.0,74,-99.99,,,0.00,weatherlink.com 1.10,2013-03-12 19:46:00,
2013-03-12 16:01:00,34.8,27.0,29.90,SW,236,11.0,-999.0,73,-99.99,,,0.00,weatherlink.com 1.10,2013-03-12 20:01:00,
2013-03-12 16:16:00,34.8,27.0,29.91,WSW,247,2.0,-999.0,72,-99.99,,,0.00,weatherlink.com 1.10,2013-03-12 20:16:00,
2013-03-12 16:31:00,34.7,26.0,29.91,WSW,244,17.0,-999.0,70,-99.99,,,0.00,weatherlink.com 1.10,2013-03-12 20:31:00,
2013-03-12 16:46:00,34.6,26.0,29.91,WSW,252,15.0,-999.0,70,-99.99,,,0.00,weatherlink.com 1.10,2013-03-12 20:46:00,
2013-03-12 17:01:00,34.3,26.0,29.92,WSW,245,12.0,-999.0,71,-99.99,,,0.00,weatherlink.com 1.10,2013-03-12 21:01:00,
2013-03-12 17:16:00,35.3,26.0,29.92,WSW,248,13.0,-999.0,69,-99.99,,,0.00,weatherlink.com 1.10,2013-03-12 21:16:00,
2013-03-12 17:31:00,34.8,25.0,29.92,WSW,244,13.0,-999.0,68,-99.99,,,0.00,weatherlink.com 1.10,2013-03-12 21:31:00,
2013-03-12 17:46:00,34.8,26.0,29.93,WSW,258,2.0,-999.0,71,-99.99,,,0.00,weatherlink.com 1.10,2013-03-12 21:46:00,
2013-03-12 18:16:00,35.0,27.0,29.93,WSW,255,1.0,-999.0,73,-99.99,,,0.00,weatherlink.com 1.10,2013-03-12 22:16:00,
2013-03-12 18:32:00,35.2,27.0,29.92,West,262,8.0,-999.0,72,-99.99,,,0.00,weatherlink.com 1.10,2013-03-12 22:32:00,
2013-03-12 18:47:00,34.8,27.0,29.92,WSW,246,1.0,-999.0,73,-99.99,,,0.00,weatherlink.com 1.10,2013-03-12 22:47:00,
2013-03-12 19:02:00,34.7,27.0,29.92,WSW,257,1.0,-999.0,74,-99.99,,,0.00,weatherlink.com 1.10,2013-03-12 23:02:00,
2013-03-12 19:17:00,34.3,28.0,29.92,WSW,238,1.0,-999.0,77,-99.99,,,0.00,weatherlink.com 1.10,2013-03-12 23:17:00,
2013-03-12 19:32:00,33.1,29.0,29.93,WSW,256,3.0,-999.0,83,-99.99,,,0.00,weatherlink.com 1.10,2013-03-12 23:32:00,
2013-03-12 20:01:00,31.7,29.0,29.93,WSW,250,1.0,-999.0,91,-99.99,,,0.00,weatherlink.com 1.10,2013-03-13 00:01:00,
2013-03-12 20:16:00,31.8,30.0,29.94,WSW,257,3.0,-999.0,92,-99.99,,,0.00,weatherlink.com 1.10,2013-03-13 00:16:00,
2013-03-12 20:31:00,31.7,30.0,29.94,WSW,254,3.0,-999.0,93,-99.99,,,0.01,weatherlink.com 1.10,2013-03-13 00:31:00,
2013-03-12 20:46:00,30.6,29.0,29.95,West,259,6.0,-999.0,93,-99.99,,,0.01,weatherlink.com 1.10,2013-03-13 00:46:00,
2013-03-12 21:02:00,30.4,29.0,29.94,WSW,242,6.0,-999.0,93,-99.99,,,0.02,weatherlink.com 1.10,2013-03-13 01:02:00,
2013-03-12 21:32:00,30.3,29.0,29.94,West,259,14.0,-999.0,93,-99.99,,,0.02,weatherlink.com 1.10,2013-03-13 01:32:00,
2013-03-12 21:47:00,30.5,29.0,29.94,WSW,254,2.0,-999.0,93,-99.99,,,0.02,weatherlink.com 1.10,2013-03-13 01:47:00,
2013-03-12 22:17:00,30.8,29.0,29.94,WSW,257,6.0,-999.0,91,-99.99,,,0.02,weatherlink.com 1.10,2013-03-13 02:17:00,
2013-03-12 22:32:00,30.8,29.0,29.94,SW,236,15.0,-999.0,91,-99.99,,,0.02,weatherlink.com 1.10,2013-03-13 02:32:00,
2013-03-12 22:47:00,30.4,28.0,29.94,WSW,238,9.0,-999.0,90,-99.99,,,0.02,weatherlink.com 1.10,2013-03-13 02:47:00,
2013-03-12 23:02:00,30.4,27.0,29.95,West,263,9.0,-999.0,88,-99.99,,,0.02,weatherlink.com 1.10,2013-03-13 03:02:00,
2013-03-12 23:17:00,30.3,27.0,29.95,WSW,239,7.0,-999.0,88,-99.99,,,0.02,weatherlink.com 1.10,2013-03-13 03:17:00,
2013-03-12 23:32:00,30.2,27.0,29.95,WSW,250,6.0,-999.0,88,-99.99,,,0.02,weatherlink.com 1.10,2013-03-13 03:32:00,
2013-03-12 23:47:00,30.1,27.0,29.95,WSW,244,10.0,-999.0,88,-99.99,,,0.02,weatherlink.com 1.10,2013-03-13 03:47:00,